sat.trackr.live / text

‹ back to catalog

AAC-AIS-SAT3

NORAD 58997 · 2023-174DJ

PAYLOAD ACTIVE UNKNOWN

§ Identity

Operator
Country
UK
Launch date
2023-11-11
Launch site
AFWTR
Launch vehicle
Mass (kg)
RCS (m²)

External: N2YO · Heavens-Above · Gunter

§ Orbital elements

Epoch: 2026-05-25T03:41:47.619168Z

Period
97.00 min
Inclination
97.6254°
Eccentricity
0.0007480
Mean motion
14.84582478 rev/d
Perigee alt
609.7 km
Apogee alt
620.1 km
Semi-major
6,993.0 km
B*
3.4355e-4
RAAN
194.8053°
Arg perigee
48.5150°
Mean anomaly
311.6706°
Rev number
13,773

§ Raw data

AAC-AIS-SAT31 58997U 23174DJ  26145.15402337  .00002851  00000+0  34355-3 0  99962 58997  97.6254 194.8053 0007480  48.5150 311.6706 14.84582478137731

JSON: /api/v1/satellites/58997 · /tle

For live sub-satellite position, see the globe view (requires WebGL).

§ Visibility from observer

Set your observer location to see the next 7 days of passes ≥ 10°. The values pass through the URL so the page stays shareable.

No JS? Fill the form by hand. The geolocation button needs JavaScript.

§ Radio — SatNOGS DB

ModeDescriptionDownlinkUplink
BPSK S-band telemetry 2.241 GHz

1 transmitter · refreshed weekly from db.satnogs.org